Regional Weather Roundup
Issued by NWS

Home | Current Version | Previous Version | Graphics & Text | Print | Product List | Glossary On
Versions: 1 2 3 4 5 6 7 8 9 10 11 12 13 14 15 16 17 18 19 20 21 22 23 24 25 26 27 28 29 30 31 32 33 34 35 36 37 38 39 40 41 42 43 44 45 46 47 48 49 50
000
ASUS43 KMPX 010110
RWRMN
WEATHER ROUNDUP FOR MINNESOTA
NATIONAL WEATHER SERVICE TWIN CITIES/CHANHASSEN MN
800 PM CDT SAT APR 30 2016


NOTE: "FAIR" INDICATES FEW OR NO CLOUDS BELOW 12,000 FEET WITH NO
SIGNIFICANT WEATHER AND/OR OBSTRUCTIONS TO VISIBILITY. N/A MEANS
CURRENT SKY AND/OR WEATHER CONDITIONS ARE NOT AVAILABLE.

MNZ060>063-068>070-010200-
   Twin Cities Metro

CITY           SKY/WX    TMP DP  RH WIND       PRES   REMARKS
TWIN CITIES    CLOUDY    54  33  45 NE13      30.06R
ST PAUL        CLOUDY    53  34  48 NE10      30.08R
CRYSTAL        CLOUDY    53  30  41 NE12G24   30.07R
BLAINE         CLOUDY    54  30  40 NE12G22   30.08R
EDEN PRAIRIE   CLOUDY    54  33  45 NE15G24   30.04R
SOUTH ST PAUL  CLOUDY    54  32  43 NE14G23   30.06R
LAKE ELMO      CLOUDY    52  34  50 NE16G22   30.07R
$$
MNZ001>005-007-008-013>017-022>024-027-028-010200-
   Northwest Minnesota

CITY           SKY/WX    TMP DP  RH WIND       PRES   REMARKS
BEMIDJI        CLEAR     53  29  39 NE10      30.19R
HALLOCK        CLEAR     59  21  23 E9        30.25R
ROSEAU         CLEAR     54  34  47 E12       30.26R
WARROAD        CLEAR     48  32  53 NE7       30.27S
THIEF RVR FALL CLEAR     55  25  30 NE13      30.23R
CROOKSTON      CLEAR     57  28  33 NE14      30.22R
FOSSTON        CLOUDY    55  27  33 NE14G22   30.20R
DETROIT LAKES  CLOUDY    54  30  40 E8        30.17R
MOORHEAD       CLOUDY    57  27  30 NE16      30.16R
PARK RAPIDS    CLEAR     55  26  32 NE13      30.15R
MAHNOMEN       FAIR      55  29  36 NE15      30.17R
$$
MNZ006-009>011-018-025>026-010200-
   North Central Minnesota

CITY           SKY/WX    TMP DP  RH WIND       PRES   REMARKS
BAUDETTE       CLEAR     53  25  33 E8        30.24R
FLAG ISLAND    CLEAR     54  27  35 NE7       30.26R
INTL FALLS     CLEAR     54  25  32 E7        30.24R
WASKISH        CLEAR     54  28  37 NE9         N/A
BIG FORK       CLEAR     54  25  32 NE7       30.21R
LONGVILLE      CLOUDY    52  30  43 E5        30.18R
GRAND RAPIDS   CLEAR     48  27  43 SE6       30.22R
CRANE LAKE     CLEAR     52  25  35 NE3       30.25R
ORR            CLEAR     52  21  30 CALM      30.20R
COOK           CLEAR     50  28  43 SE6       30.23R
WALKER         FAIR      53  29  39 NE13      30.17R
$$
MNZ012-019>021-037-010200-
   Northeast Minnesota

CITY           SKY/WX    TMP DP  RH WIND       PRES   REMARKS
DULUTH         CLOUDY    41  26  55 E16       30.23R
ELY            CLEAR     46  27  46 SE5       30.24R
HIBBING        CLEAR     44  27  51 SE8       30.22R
EVELETH        CLEAR     45  27  49 E5        30.24R
DULUTH HARBOR  CLOUDY    39  36  87 NE24      30.24S
TWO HARBORS    CLOUDY    45  30  57 NE10      30.23R
SILVER BAY     CLOUDY    43  27  52 NE6       30.24R
GRAND MARAIS     N/A     43  30  60 E8        30.26S
G MARAIS ARPRT CLEAR     41  23  48 E5        30.25R
$$
MNZ029>031-032-039>041-046>048-054>057-064-010200-
   West Central Minnesota

CITY           SKY/WX    TMP DP  RH WIND       PRES   REMARKS
FERGUS FALLS   PTCLDY    55  30  38 E7        30.11R
WHEATON        PTCLDY    57  36  44 E15       30.13R
MORRIS         CLOUDY    54  32  43 E17       30.11R
ALEXANDRIA     CLOUDY    50  29  44 E14       30.14R
ELBOW LAKE     FAIR      54  32  43 E14G20    30.13R
WADENA         PTCLDY    54  30  40 E8        30.14R
GLENWOOD       CLOUDY    50  30  46 NE18G25   30.13R
APPLETON       CLOUDY    54  32  43 NE17      30.09R
BENSON         CLOUDY    52  30  43 E13G18    30.11R
ORTONVILLE     CLOUDY    54  36  50 NE12      30.10R
MADISON        CLOUDY    54  36  50 NE18G25   30.08R
WILLMAR        FAIR      54  36  50 NE16G23   30.09R
$$
MNZ033>034-036-042>043-049>051-058-059-010200-
   Central Minnesota

CITY           SKY/WX    TMP DP  RH WIND       PRES   REMARKS
ST CLOUD       PTCLDY    51  29  42 NE15G22   30.11R
SAUK CENTRE    FAIR      49  31  48 NE13G20   30.13R
PAYNESVILLE    CLOUDY    52  31  44 NE14      30.10R
AITKIN         MOCLDY    48  25  40 E10G20    30.18R
PINE RIVER     PTCLDY    52  34  50 E10       30.20R
BRAINERD       CLOUDY    49  27  42 NE13G24   30.18R
STAPLES        CLOUDY    52  28  40 E10G16    30.16R
LONG PRAIRIE   FAIR      48  30  49 NE12      30.14R
LITTLE FALLS   CLOUDY    48  28  46 NE8       30.15R
LITCHFIELD     CLOUDY    54  34  47 NE12G23   30.08R
BUFFALO        CLOUDY    51  31  45 NE17G24   30.09R
MAPLE LAKE     CLOUDY    53  34  49 NE15G24   30.10R
HUTCHINSON     CLOUDY    53  37  53 NE14G23   30.07R
$$
MNZ037-044-045-052-053-010200-
   East Central Minnesota

CITY           SKY/WX    TMP DP  RH WIND       PRES   REMARKS
PRINCETON      CLOUDY    52  30  43 N16G22    30.12R
MORA           CLOUDY    46  28  49 NE8       30.17R
CAMBRIDGE      CLOUDY    54  34  47 NE13G21   30.10R
RUSH CITY      CLOUDY    49  28  44 NE13      30.13R
MOOSE LAKE     CLOUDY    45  27  49 NE8       30.18R
HINCKLEY       FAIR      46  30  53 NE17      30.16R
CLOQUET        CLOUDY    45  25  45 E13G22    30.22R
MCGREGOR       PTCLDY    46  30  53 E8G16     30.20R
$$
MNZ071>073-080-081-089-090-097-098-010200-
   Southwest Minnesota

CITY           SKY/WX    TMP DP  RH WIND       PRES   REMARKS
MONTEVIDEO     CLOUDY    54  37  54 E16       30.09R
GRANITE FALLS  CLOUDY    55  39  55 NE13      30.07R
CANBY          CLOUDY    54  42  62 E8        30.07R
MARSHALL       CLOUDY    47  40  76 E7        30.06R
REDWOOD FALLS  CLOUDY    49  40  71 SE5       30.05R
OLIVIA         CLOUDY    54  36  50 NE10G16   30.05R
PIPESTONE      CLOUDY    45  39  81 E10G20    30.02R
WINDOM         LGT RAIN  45  41  87 NE15G22   30.02S
WORTHINGTON    LGT RAIN  43  40  89 NE21      30.01R
JACKSON        LGT RAIN  43  41  93 E18G26    30.01R
TRACY          LGT RAIN  46  42  86 E14G20    30.04S
SLAYTON        DRIZZLE   44  42  93 E14G20    30.04R
$$
MNZ065>067-074>077-082>085-091>093-010200-
   South Central Minnesota

CITY           SKY/WX    TMP DP  RH WIND       PRES   REMARKS
MANKATO        CLOUDY    46  39  76 E14       30.04S
NEW ULM        LGT RAIN  46  43  87 E7        30.05R
ST JAMES       RAIN      39  37  93 NE9       30.04S
FAIRMONT       CLOUDY    45  34  65 NE15G24   30.01R
GLENCOE        CLOUDY    54  39  57 NE9G17    30.05R
FARIBAULT      CLOUDY    45  43  93 E8        30.05R
OWATONNA       RAIN      45  39  81 E8        30.04R
WASECA         DRIZZLE   45  39  81 NE12G18   30.04S
ALBERT LEA     CLOUDY    43  43 100 NE20G25   30.00S
$$
MNZ078>079-086>088-094>096-010200-
   Southeast Minnesota

CITY           SKY/WX    TMP DP  RH WIND       PRES   REMARKS
ROCHESTER      LGT RAIN  43  40  89 NE17      30.02S
RED WING       CLOUDY    52  36  54 SE17      30.04R
STANTON        DRIZZLE   49  38  65 SE10G17   30.03S
DODGE CENTER   LGT RAIN  41  41 100 E21       30.02S
WINONA         DRIZZLE   46  41  81 E7G20     30.05S
AUSTIN         CLOUDY    43  37  81 NE17      30.00R
PRESTON        CLOUDY    41  38  89 NE12G18   30.00S
$$
ABBREVIATIONS USED IN REMARKS
   TC - TEMPERATURES IN CELSIUS
  WCI - WIND CHILL INDEX
   HX - HEAT INDEX
  VSB - VISIBILITY
$$




USA.gov is the U.S. government's official web portal to all federal, state and local government web resources and services.